| time (UTC) | temp F | wind direction | speed MPH | gust MPH | rain 1hr in | rain 24hr in | rain mn in | humidity % | barometer mb |
| 20260504023206 | 59 | 257 | 0.0 | 1.0 | 0.00 | 0.00 | 0.00 | 48 | |
| 20260504022205 | 60 | 199 | 0.0 | 0.0 | 0.00 | 0.00 | 0.00 | 48 | |
| 20260504021206 | 61 | 199 | 0.0 | 0.0 | 0.00 | 0.00 | 0.00 | 47 | |
| 20260504020206 | 61 | 199 | 0.0 | 2.0 | 0.00 | 0.00 | 0.00 | 46 | |
| 20260504015206 | 61 | 239 | 0.0 | 2.0 | 0.00 | 0.00 | 0.00 | 45 | |
| 20260504014205 | 62 | 226 | 0.0 | 1.0 | 0.00 | 0.00 | 0.00 | 45 | |
| 20260504013206 | 62 | 2 | 0.0 | 0.0 | 0.00 | 0.00 | 0.00 | 44 | |
| 20260504012205 | 63 | 2 | 0.0 | 0.0 | 0.00 | 0.00 | 0.00 | 44 | |
| 20260504011206 | 65 | 2 | 0.0 | 1.0 | 0.00 | 0.00 | 0.00 | 41 | |
| 20260504010205 | 66 | 216 | 0.0 | 1.0 | 0.00 | 0.00 | 0.00 | 38 | |
| 20260504005206 | 68 | 220 | 0.0 | 1.0 | 0.00 | 0.00 | 0.00 | 36 | |
| 20260504004206 | 69 | 228 | 0.0 | 5.0 | 0.00 | 0.00 | 0.00 | 34 | |
| 20260504003209 | 69 | 337 | 3.0 | 8.0 | 0.00 | 0.00 | 0.00 | 32 | |
| 20260504002205 | 70 | 303 | 2.0 | 10.0 | 0.00 | 0.00 | 0.00 | 31 | |
| 20260504001206 | 70 | 329 | 3.0 | 12.0 | 0.00 | 0.00 | 0.00 | 31 | |
| 20260504000206 | 71 | 310 | 3.0 | 8.0 | 0.00 | 0.00 | 0.00 | 30 | |
| 20260503235205 | 71 | 301 | 5.0 | 8.0 | 0.00 | 0.00 | 0.00 | 31 | |
| 20260503234205 | 71 | 279 | 5.0 | 12.0 | 0.00 | 0.00 | 0.00 | 32 | |
| 20260503233205 | 71 | 325 | 5.0 | 10.0 | 0.00 | 0.00 | 0.00 | 30 | |
| 20260503232206 | 71 | 311 | 5.0 | 12.0 | 0.00 | 0.00 | 0.00 | 31 | |
| 20260503231206 | 71 | 300 | 5.0 | 17.0 | 0.00 | 0.00 | 0.00 | 32 | |
| 20260503230205 | 71 | 293 | 4.0 | 12.0 | 0.00 | 0.00 | 0.00 | 32 | |
| 20260503225206 | 72 | 335 | 5.0 | 9.0 | 0.00 | 0.00 | 0.00 | 34 | |
| 20260503224206 | 71 | 276 | 5.0 | 15.0 | 0.00 | 0.00 | 0.00 | 34 | |
| 20260503223205 | 70 | 268 | 8.0 | 15.0 | 0.00 | 0.00 | 0.00 | 34 | |
| 20260503222205 | 71 | 245 | 7.0 | 13.0 | 0.00 | 0.00 | 0.00 | 34 | |
| 20260503221206 | 71 | 295 | 6.0 | 17.0 | 0.00 | 0.00 | 0.00 | 33 | |
| 20260503220206 | 71 | 300 | 6.0 | 12.0 | 0.00 | 0.00 | 0.00 | 34 | |
| 20260503215205 | 70 | 253 | 6.0 | 18.0 | 0.00 | 0.00 | 0.00 | 36 | |
| 20260503214205 | 70 | 265 | 5.0 | 16.0 | 0.00 | 0.00 | 0.00 | 36 | |
| 20260503213206 | 69 | 274 | 7.0 | 16.0 | 0.00 | 0.00 | 0.00 | 37 | |
| 20260503212206 | 69 | 269 | 5.0 | 18.0 | 0.00 | 0.00 | 0.00 | 38 | |
| 20260503211206 | 70 | 290 | 5.0 | 15.0 | 0.00 | 0.00 | 0.00 | 38 | |
| 20260503210205 | 69 | 270 | 5.0 | 13.0 | 0.00 | 0.00 | 0.00 | 38 | |
| 20260503205206 | 69 | 261 | 7.0 | 20.0 | 0.00 | 0.00 | 0.00 | 38 | |
| 20260503204205 | 68 | 262 | 5.0 | 20.0 | 0.00 | 0.00 | 0.00 | 39 | |
| 20260503203209 | 68 | 247 | 6.0 | 14.0 | 0.00 | 0.00 | 0.00 | 39 | |
| 20260503202206 | 68 | 250 | 6.0 | 22.0 | 0.00 | 0.00 | 0.00 | 40 | |
| 20260503201206 | 68 | 239 | 9.0 | 17.0 | 0.00 | 0.00 | 0.00 | 39 | |
| 20260503200206 | 68 | 268 | 6.0 | 23.0 | 0.00 | 0.00 | 0.00 | 41 | |
| 20260503195207 | 67 | 249 | 7.0 | 18.0 | 0.00 | 0.00 | 0.00 | 40 | |
| 20260503194206 | 66 | 273 | 10.0 | 20.0 | 0.00 | 0.00 | 0.00 | 41 | |
| 20260503193205 | 66 | 296 | 9.0 | 20.0 | 0.00 | 0.00 | 0.00 | 40 | |
| 20260503192206 | 66 | 251 | 6.0 | 17.0 | 0.00 | 0.00 | 0.00 | 41 | |
| 20260503191206 | 66 | 266 | 8.0 | 18.0 | 0.00 | 0.00 | 0.00 | 40 | |
| 20260503190206 | 65 | 240 | 7.0 | 18.0 | 0.00 | 0.00 | 0.00 | 42 | |
| 20260503185206 | 65 | 267 | 6.0 | 20.0 | 0.00 | 0.00 | 0.00 | 41 | |
| 20260503184205 | 64 | 293 | 10.0 | 24.0 | 0.00 | 0.00 | 0.00 | 42 | |
| 20260503183206 | 64 | 269 | 9.0 | 22.0 | 0.00 | 0.00 | 0.00 | 42 | |
| 20260503182206 | 65 | 231 | 7.0 | 17.0 | 0.00 | 0.00 | 0.00 | 41 | |
| 20260503181206 | 65 | 252 | 7.0 | 18.0 | 0.00 | 0.00 | 0.00 | 42 | |
| 20260503180206 | 64 | 291 | 7.0 | 18.0 | 0.00 | 0.00 | 0.00 | 42 | |
| 20260503175206 | 64 | 239 | 10.0 | 21.0 | 0.00 | 0.00 | 0.00 | 39 | |
| 20260503174206 | 64 | 256 | 6.0 | 17.0 | 0.00 | 0.00 | 0.00 | 43 | |
| 20260503173206 | 63 | 247 | 10.0 | 21.0 | 0.00 | 0.00 | 0.00 | 43 | |
| 20260503172206 | 63 | 231 | 6.0 | 16.0 | 0.00 | 0.00 | 0.00 | 48 | |
| 20260503171206 | 62 | 222 | 7.0 | 22.0 | 0.00 | 0.00 | 0.00 | 49 | |
| 20260503170206 | 61 | 246 | 8.0 | 21.0 | 0.00 | 0.00 | 0.00 | 48 | |
| 20260503160205 | 60 | 250 | 6.0 | 13.0 | 0.00 | 0.00 | 0.00 | 51 | |
| 20260503150206 | 57 | 216 | 5.0 | 13.0 | 0.00 | 0.00 | 0.00 | 61 | |
| 20260503140206 | 51 | 247 | 5.0 | 14.0 | 0.00 | 0.00 | 0.00 | 75 | |
| 20260503131206 | 51 | 253 | 7.0 | 16.0 | 0.00 | 0.00 | 0.00 | 70 | |
| 20260503130206 | 51 | 257 | 7.0 | 15.0 | 0.00 | 0.00 | 0.00 | 69 | |
| 20260503120209 | 50 | 258 | 5.0 | 10.0 | 0.00 | 0.00 | 0.00 | 61 | |
| 20260503110206 | 49 | 255 | 5.0 | 15.0 | 0.00 | 0.00 | 0.00 | 56 | |
| 20260503100206 | 50 | 242 | 5.0 | 13.0 | 0.00 | 0.00 | 0.00 | 52 | |
| 20260503090206 | 49 | 242 | 4.0 | 10.0 | 0.00 | 0.00 | 0.00 | 53 | |
| 20260503081206 | 48 | 236 | 3.0 | 8.0 | 0.00 | 0.00 | 0.00 | 54 | |
| 20260503080206 | 48 | 234 | 5.0 | 10.0 | 0.00 | 0.00 | 0.00 | 53 | |
| 20260503072205 | 48 | 261 | 2.0 | 9.0 | 0.00 | 0.00 | 0.00 | 53 | |
| 20260503071206 | 48 | 250 | 3.0 | 9.0 | 0.00 | 0.00 | 0.00 | 53 | |
| 20260503070205 | 48 | 253 | 3.0 | 9.0 | 0.00 | 0.00 | 0.00 | 53 | |
| 20260503060206 | 49 | 239 | 3.0 | 13.0 | 0.00 | 0.00 | 0.00 | 49 | |
| 20260503054206 | 49 | 224 | 4.0 | 9.0 | 0.00 | 0.00 | 0.00 | 50 | |
| 20260503053207 | 49 | 219 | 5.0 | 10.0 | 0.00 | 0.00 | 0.00 | 49 | |
| 20260503052206 | 49 | 261 | 3.0 | 7.0 | 0.00 | 0.00 | 0.00 | 50 | |
| 20260503051206 | 49 | 247 | 3.0 | 7.0 | 0.00 | 0.00 | 0.00 | 49 | |
| 20260503050206 | 49 | 257 | 3.0 | 8.0 | 0.00 | 0.00 | 0.00 | 49 | |
| 20260503045206 | 49 | 248 | 5.0 | 8.0 | 0.00 | 0.00 | 0.00 | 49 | |
| 20260503044205 | 49 | 237 | 4.0 | 7.0 | 0.00 | 0.00 | 0.00 | 49 | |
| 20260503043209 | 49 | 229 | 3.0 | 8.0 | 0.00 | 0.00 | 0.00 | 49 | |
| 20260503042206 | 49 | 231 | 3.0 | 7.0 | 0.00 | 0.00 | 0.00 | 48 | |
| 20260503041206 | 49 | 231 | 3.0 | 7.0 | 0.00 | 0.00 | 0.00 | 48 | |
| 20260503040206 | 49 | 237 | 3.0 | 6.0 | 0.00 | 0.00 | 0.00 | 48 | |
| 20260503035206 | 49 | 250 | 2.0 | 6.0 | 0.00 | 0.00 | 0.00 | 47 | |
| 20260503034206 | 50 | 224 | 2.0 | 7.0 | 0.00 | 0.00 | 0.00 | 47 | |
| 20260503033205 | 50 | 225 | 3.0 | 7.0 | 0.00 | 0.00 | 0.00 | 46 | |
| 20260503032206 | 50 | 228 | 2.0 | 6.0 | 0.00 | 0.00 | 0.00 | 45 | |
| 20260503031206 | 50 | 259 | 2.0 | 7.0 | 0.00 | 0.00 | 0.00 | 45 | |
| 20260503030205 | 51 | 242 | 3.0 | 5.0 | 0.00 | 0.00 | 0.00 | 44 | |
| 20260503025206 | 51 | 234 | 1.0 | 5.0 | 0.00 | 0.00 | 0.00 | 44 | |
| 20260503024206 | 51 | 223 | 2.0 | 6.0 | 0.00 | 0.00 | 0.00 | 44 |